User: anonymous   Login
Location: Angwan Shehu
(11.2514°N, 7.4613°E)
Time: 21:22:51
(UTC+00:00)
Language:

Vanguard 2 - Orbit

View from above orbital plane
View from above orbital plane
View from above satellite
View from above satellite

Ground track
Ground track

The orbit data is extracted from the following two-line orbital elements,

1 00011U 59001A   21107.38895114  .00000217  00000-0  10493-3 0  9997
2 00011  32.8712 354.2156 1468138 167.4007 196.7794 11.85787819311068
Epoch (UTC): 17 April 2021 09:20:05
Eccentricity: 0.1468138
inclination: 32.8712°
perigee height: 552 km
apogee height: 2938 km
right ascension of ascending node: 354.2156°
argument of perigee: 167.4007°
revolutions per day: 11.85787819
mean anomaly at epoch: 196.7794°
orbit number at epoch: 31106

The dashed part of the orbit path shows where the satellite is in the earth's shadow,  

DLR